TimeEST,TemperatureF,Dew PointF,Humidity,Sea Level PressureIn,VisibilityMPH,Wind Direction,Wind SpeedMPH,Gust SpeedMPH,PrecipitationIn,Events,Conditions,WindDirDegrees,DateUTC
12:15 AM,35.6,32.0,87,30.27,10.0,WNW,4.6,-,N/A,,Scattered Clouds,300,2012-12-13 05:15:00
12:35 AM,35.6,32.0,87,30.28,10.0,NNW,6.9,-,N/A,,Clear,330,2012-12-13 05:35:00
12:55 AM,35.6,32.0,87,30.28,10.0,NNW,6.9,-,N/A,,Mostly Cloudy,340,2012-12-13 05:55:00
1:15 AM,35.6,32.0,87,30.28,10.0,Calm,Calm,-,N/A,,Mostly Cloudy,0,2012-12-13 06:15:00
1:35 AM,35.6,32.0,87,30.28,10.0,NNW,4.6,-,N/A,,Scattered Clouds,340,2012-12-13 06:35:00
1:55 AM,33.8,32.0,93,30.29,10.0,NNW,4.6,-,N/A,,Clear,330,2012-12-13 06:55:00
2:15 AM,35.6,32.0,87,30.30,10.0,NW,4.6,-,N/A,,Mostly Cloudy,320,2012-12-13 07:15:00
2:35 AM,35.6,32.0,87,30.30,10.0,Calm,Calm,-,N/A,,Overcast,0,2012-12-13 07:35:00
2:55 AM,33.8,32.0,93,30.30,10.0,Calm,Calm,-,N/A,,Scattered Clouds,0,2012-12-13 07:55:00
3:15 AM,32.0,32.0,100,30.31,10.0,Calm,Calm,-,N/A,,Clear,0,2012-12-13 08:15:00
3:35 AM,32.0,32.0,100,30.32,10.0,Calm,Calm,-,N/A,,Clear,0,2012-12-13 08:35:00
3:55 AM,32.0,32.0,100,30.33,10.0,Calm,Calm,-,N/A,,Clear,0,2012-12-13 08:55:00
4:15 AM,32.0,30.2,93,30.32,10.0,Calm,Calm,-,N/A,,Clear,0,2012-12-13 09:15:00
4:35 AM,32.0,32.0,100,30.31,10.0,Calm,Calm,-,N/A,,Clear,0,2012-12-13 09:35:00
4:55 AM,32.0,30.2,93,30.31,10.0,Calm,Calm,-,N/A,,Clear,0,2012-12-13 09:55:00
5:15 AM,32.0,30.2,93,30.31,10.0,Calm,Calm,-,N/A,,Scattered Clouds,0,2012-12-13 10:15:00
5:35 AM,30.2,30.2,100,30.32,10.0,Calm,Calm,-,N/A,,Clear,0,2012-12-13 10:35:00
5:55 AM,30.2,30.2,100,30.32,10.0,Calm,Calm,-,N/A,,Clear,0,2012-12-13 10:55:00
6:15 AM,30.2,30.2,100,30.33,10.0,Calm,Calm,-,N/A,,Clear,0,2012-12-13 11:15:00
6:35 AM,30.2,30.2,100,30.34,10.0,Calm,Calm,-,N/A,,Clear,0,2012-12-13 11:35:00
6:55 AM,30.2,30.2,100,30.34,10.0,Calm,Calm,-,N/A,,Clear,0,2012-12-13 11:55:00
7:15 AM,30.2,30.2,100,30.35,10.0,Calm,Calm,-,N/A,,Clear,0,2012-12-13 12:15:00
7:35 AM,28.4,28.4,100,30.36,10.0,Calm,Calm,-,N/A,,Clear,0,2012-12-13 12:35:00
7:55 AM,28.4,28.4,100,30.36,10.0,Calm,Calm,-,N/A,,Clear,0,2012-12-13 12:55:00
8:15 AM,30.2,30.2,100,30.37,10.0,Calm,Calm,-,N/A,,Clear,0,2012-12-13 13:15:00
8:35 AM,32.0,30.2,93,30.37,10.0,North,3.5,-,N/A,,Clear,350,2012-12-13 13:35:00
8:55 AM,32.0,32.0,100,30.36,10.0,Calm,Calm,-,N/A,,Clear,0,2012-12-13 13:55:00
9:15 AM,33.8,32.0,93,30.37,10.0,North,5.8,-,N/A,,Clear,350,2012-12-13 14:15:00
9:35 AM,35.6,32.0,87,30.38,10.0,North,5.8,-,N/A,,Clear,350,2012-12-13 14:35:00
9:55 AM,37.4,32.0,81,30.37,10.0,NNW,3.5,-,N/A,,Clear,330,2012-12-13 14:55:00
10:15 AM,39.2,32.0,75,30.38,10.0,Calm,Calm,-,N/A,,Clear,0,2012-12-13 15:15:00
10:35 AM,41.0,32.0,70,30.38,10.0,Calm,Calm,-,N/A,,Clear,0,2012-12-13 15:35:00
10:55 AM,42.8,33.8,70,30.38,10.0,NNW,4.6,-,N/A,,Clear,330,2012-12-13 15:55:00
11:15 AM,42.8,33.8,70,30.38,10.0,Calm,Calm,-,N/A,,Clear,0,2012-12-13 16:15:00
11:35 AM,44.6,35.6,71,30.38,10.0,NNW,5.8,-,N/A,,Clear,330,2012-12-13 16:35:00
11:55 AM,46.4,35.6,66,30.37,10.0,North,5.8,-,N/A,,Clear,350,2012-12-13 16:55:00
12:15 PM,46.4,35.6,66,30.36,10.0,NW,4.6,-,N/A,,Clear,310,2012-12-13 17:15:00
12:35 PM,48.2,35.6,62,30.35,10.0,North,3.5,-,N/A,,Clear,360,2012-12-13 17:35:00
12:55 PM,50.0,37.4,62,30.34,10.0,North,4.6,-,N/A,,Clear,10,2012-12-13 17:55:00
1:15 PM,50.0,35.6,58,30.33,10.0,NE,3.5,-,N/A,,Clear,40,2012-12-13 18:15:00
1:35 PM,50.0,35.6,58,30.33,10.0,Calm,Calm,-,N/A,,Clear,0,2012-12-13 18:35:00
1:55 PM,51.8,35.6,54,30.33,10.0,Calm,Calm,-,N/A,,Clear,0,2012-12-13 18:55:00
2:15 PM,51.8,35.6,54,30.32,10.0,WNW,3.5,-,N/A,,Clear,290,2012-12-13 19:15:00
2:35 PM,51.8,35.6,54,30.31,10.0,Calm,Calm,-,N/A,,Clear,0,2012-12-13 19:35:00
2:55 PM,53.6,35.6,51,30.30,10.0,Calm,Calm,-,N/A,,Clear,0,2012-12-13 19:55:00
3:15 PM,53.6,35.6,51,30.30,10.0,NNE,3.5,-,N/A,,Clear,30,2012-12-13 20:15:00
3:35 PM,53.6,35.6,51,30.29,10.0,ENE,3.5,-,N/A,,Clear,60,2012-12-13 20:35:00
3:55 PM,53.6,35.6,51,30.29,10.0,Calm,Calm,-,N/A,,Clear,0,2012-12-13 20:55:00
4:15 PM,53.6,35.6,51,30.29,10.0,Calm,Calm,-,N/A,,Clear,0,2012-12-13 21:15:00
4:35 PM,53.6,35.6,51,30.30,10.0,Calm,Calm,-,N/A,,Clear,0,2012-12-13 21:35:00
4:55 PM,51.8,35.6,54,30.29,10.0,Calm,Calm,-,N/A,,Clear,0,2012-12-13 21:55:00
5:15 PM,50.0,35.6,58,30.29,10.0,NNW,3.5,-,N/A,,Clear,330,2012-12-13 22:15:00
5:35 PM,50.0,35.6,58,30.29,10.0,Calm,Calm,-,N/A,,Clear,0,2012-12-13 22:35:00
7:15 PM,41.0,35.6,81,30.30,10.0,Calm,Calm,-,N/A,,Clear,0,2012-12-14 00:15:00
8:15 PM,37.4,35.6,93,30.32,10.0,Calm,Calm,-,N/A,,Clear,0,2012-12-14 01:15:00
8:35 PM,37.4,35.6,93,30.32,10.0,Calm,Calm,-,N/A,,Clear,0,2012-12-14 01:35:00
8:55 PM,35.6,35.6,100,30.32,10.0,Calm,Calm,-,N/A,,Clear,0,2012-12-14 01:55:00
9:15 PM,35.6,33.8,93,30.33,10.0,Calm,Calm,-,N/A,,Clear,0,2012-12-14 02:15:00
9:35 PM,33.8,33.8,100,30.33,10.0,Calm,Calm,-,N/A,,Clear,0,2012-12-14 02:35:00
9:55 PM,35.6,33.8,93,30.33,10.0,Calm,Calm,-,N/A,,Clear,0,2012-12-14 02:55:00
10:15 PM,33.8,33.8,100,30.34,10.0,Calm,Calm,-,N/A,,Clear,0,2012-12-14 03:15:00
10:35 PM,32.0,32.0,100,30.34,10.0,Calm,Calm,-,N/A,,Clear,0,2012-12-14 03:35:00
10:55 PM,32.0,32.0,100,30.34,10.0,Calm,Calm,-,N/A,,Clear,0,2012-12-14 03:55:00
11:15 PM,32.0,32.0,100,30.34,10.0,Calm,Calm,-,N/A,,Scattered Clouds,0,2012-12-14 04:15:00
11:35 PM,32.0,32.0,100,30.34,10.0,Calm,Calm,-,N/A,,Clear,0,2012-12-14 04:35:00
11:55 PM,32.0,32.0,100,30.33,10.0,Calm,Calm,-,N/A,,Clear,0,2012-12-14 04:55:00